Frank Pais International Airport
MUHG : now visible

Airfield :











YOU CAN JOIN US ON...

 
LOGIN :

Register | Disclaimer

   EN    FR    IT 

 









Legend :    VFR   Marginal VFR   IFR   Intensive IFR   Very Intensive IFR
Visi :
Ceiling :
>= 8 km
>= 3000ft
5 to 8 km
1000 to 3000 ft
1500m to 5 km
500 to 1000 ft
800 to 1500m
200 to 500 ft
< 800m
< 200 ft
Symbols :   Thunderstorms  Fog  Heavy snow  Heavy precipitations  Wind > 20 kt






- Airport Elevation : 361 ft
- IATA code : HOG


MUHG - Frank Pais International

CURRENT METAR :
  • 280050Z VRB03KT 9000 FEW030 BKN180 26/21 Q1015

EXPIRED METARs :
  • 272350Z 15005KT 120V180 9000 FEW025 BKN180 26/20 Q1014
  • 272250Z 09012KT 9000 SCT025 BKN180 29/25 Q1014

TAF MUHG
Valid from the 28 at 00:00 until the 29 at 00:00 UTC


272300Z 2800/2824 06010KT 9000 SCT020 BKN090
BECMG 2801/2803 VRB03KT
BECMG 2815/2817 07010KT
TEMPO 2818/2824 VRB10KT 5000 SHRA SCT018CB BKN020
MUFH FIR / North America



MET'MAP, your aeronautical weather chart ! - Copyright ORBIFLY December 2007 - Disclaimer

ORBIFLY MET'MAP TEAM :

Programming & Development : Alexandra Zaïnal
Concept & original design : Baudouin d'Aumeries
Assistance for programming : Marc-Olivier Méhu
Technical & hardware support : Manuel Goepfert

Contact : metmap@orbifly.com




SOURCES & CREDITS :

   NOAA       Earth
Advisory